StationID,Date,MaxTemp,MinTemp,Precipitation,Snowfall,SnowDepth
"US1IALN0032","2016-08-17",,,25.00,0.00,0.00
"US1IALN0032","2016-08-18",,,0.00,0.00,0.00
"US1IALN0032","2016-08-19",,,0.00,0.00,0.00
"US1IALN0032","2016-08-20",,,56.00,0.00,0.00
"US1IALN0032","2016-08-21",,,5.00,0.00,0.00
"US1IALN0032","2016-08-22",,,0.00,0.00,0.00
"US1IALN0032","2016-08-23",,,0.00,0.00,0.00
"US1IALN0032","2016-08-24",,,259.00,0.00,0.00
"US1IALN0032","2016-08-25",,,10.00,0.00,0.00
"US1IALN0032","2016-08-26",,,0.00,0.00,0.00
"US1IALN0032","2016-08-27",,,99.00,0.00,0.00
"US1IALN0032","2016-08-28",,,0.00,0.00,0.00
"US1IALN0032","2016-08-29",,,0.00,0.00,0.00
"US1IALN0032","2016-08-30",,,10.00,0.00,0.00
"US1IALN0032","2016-08-31",,,0.00,0.00,0.00
"US1IALN0032","2016-09-01",,,0.00,0.00,0.00
"US1IALN0032","2016-09-02",,,0.00,0.00,0.00
"US1IALN0032","2016-09-03",,,0.00,0.00,0.00
"US1IALN0032","2016-09-04",,,0.00,0.00,0.00
"US1IALN0032","2016-09-05",,,0.00,0.00,0.00
"US1IALN0032","2016-09-06",,,0.00,0.00,0.00
"US1IALN0032","2016-09-07",,,0.00,0.00,0.00
"US1IALN0032","2016-09-08",,,597.00,0.00,0.00
"US1IALN0032","2016-09-09",,,0.00,0.00,0.00
"US1IALN0032","2016-09-10",,,163.00,0.00,0.00
"US1IALN0032","2016-09-11",,,0.00,0.00,0.00
"US1IALN0032","2016-09-12",,,0.00,0.00,0.00
"US1IALN0032","2016-09-13",,,262.00,0.00,0.00
"US1IALN0032","2016-09-14",,,28.00,0.00,0.00
"US1IALN0032","2016-09-15",,,0.00,0.00,0.00
"US1IALN0032","2016-09-16",,,368.00,0.00,0.00
"US1IALN0032","2016-09-17",,,0.00,0.00,0.00
"US1IALN0032","2016-09-18",,,0.00,0.00,0.00
"US1IALN0032","2016-09-19",,,0.00,0.00,0.00
"US1IALN0032","2016-09-20",,,0.00,0.00,0.00
"US1IALN0032","2016-09-21",,,0.00,0.00,0.00
"US1IALN0032","2016-09-22",,,0.00,0.00,0.00
"US1IALN0032","2016-09-23",,,432.00,0.00,0.00
"US1IALN0032","2016-09-24",,,13.00,0.00,0.00
"US1IALN0032","2016-09-25",,,0.00,0.00,0.00
"US1IALN0032","2016-09-26",,,0.00,0.00,0.00
"US1IALN0032","2016-09-27",,,0.00,0.00,0.00
"US1IALN0032","2016-09-28",,,0.00,0.00,0.00
"US1IALN0032","2016-09-29",,,0.00,0.00,0.00
"US1IALN0032","2016-09-30",,,0.00,0.00,0.00
"US1IALN0032","2016-10-01",,,0.00,0.00,0.00
"US1IALN0032","2016-10-02",,,5.00,0.00,0.00
"US1IALN0032","2016-10-03",,,0.00,0.00,0.00
"US1IALN0032","2016-10-04",,,0.00,0.00,0.00
"US1IALN0032","2016-10-05",,,10.00,0.00,0.00
"US1IALN0032","2016-10-06",,,0.00,0.00,0.00
"US1IALN0032","2016-10-07",,,30.00,0.00,0.00
"US1IALN0032","2016-10-08",,,0.00,0.00,0.00
"US1IALN0032","2016-10-09",,,0.00,0.00,0.00
"US1IALN0032","2016-10-10",,,0.00,0.00,0.00
"US1IALN0032","2016-10-11",,,84.00,0.00,0.00
"US1IALN0032","2016-10-12",,,0.00,0.00,0.00
"US1IALN0032","2016-10-13",,,3.00,0.00,0.00
"US1IALN0032","2016-10-14",,,0.00,0.00,0.00
"US1IALN0032","2016-10-15",,,0.00,0.00,0.00
"US1IALN0032","2016-10-16",,,56.00,0.00,0.00
"US1IALN0032","2016-10-17",,,0.00,0.00,0.00
"US1IALN0032","2016-10-18",,,0.00,0.00,0.00
"US1IALN0032","2016-10-19",,,0.00,0.00,0.00
"US1IALN0032","2016-10-20",,,0.00,0.00,0.00
"US1IALN0032","2016-11-02",,,163.00,0.00,0.00
"US1IALN0032","2016-11-03",,,0.00,0.00,0.00
"US1IALN0032","2016-11-04",,,0.00,0.00,0.00
"US1IALN0032","2016-11-05",,,0.00,0.00,0.00
"US1IALN0032","2016-11-06",,,0.00,0.00,0.00
"US1IALN0032","2016-11-07",,,0.00,0.00,0.00
"US1IALN0032","2016-11-08",,,0.00,0.00,0.00
"US1IALN0032","2016-11-09",,,0.00,0.00,0.00
"US1IALN0032","2016-11-10",,,0.00,0.00,0.00
"US1IALN0032","2016-11-11",,,0.00,0.00,0.00
"US1IALN0032","2016-11-12",,,0.00,0.00,0.00
"US1IALN0032","2016-11-13",,,0.00,0.00,0.00
"US1IALN0032","2016-11-14",,,0.00,0.00,0.00
"US1IALN0032","2016-11-15",,,0.00,0.00,0.00
"US1IALN0032","2016-11-16",,,0.00,0.00,0.00
"US1IALN0032","2016-11-17",,,0.00,0.00,0.00
"US1IALN0032","2016-11-18",,,0.00,0.00,0.00
"US1IALN0032","2016-11-19",,,0.00,0.00,0.00
"US1IALN0032","2016-11-20",,,0.00,0.00,0.00
"US1IALN0032","2016-11-21",,,0.00,0.00,0.00
"US1IALN0032","2016-11-22",,,0.00,0.00,0.00
"US1IALN0032","2016-11-23",,,119.00,0.00,0.00
"US1IALN0032","2016-11-24",,,3.00,0.00,0.00
"US1IALN0032","2016-11-25",,,0.00,0.00,0.00
"US1IALN0032","2016-11-26",,,0.00,0.00,0.00
"US1IALN0032","2016-11-27",,,0.00,0.00,0.00
"US1IALN0032","2016-11-28",,,249.00,0.00,0.00
"US1IALN0032","2016-11-29",,,18.00,0.00,0.00
"US1IALN0032","2016-11-30",,,0.00,0.00,0.00
"US1IALN0032","2016-12-01",,,3.00,0.00,0.00
"US1IALN0032","2016-12-02",,,0.00,0.00,0.00
"US1IALN0032","2016-12-03",,,0.00,0.00,0.00
"US1IALN0032","2016-12-04",,,48.00,30.00,25.00
"US1IALN0032","2016-12-05",,,97.00,71.00,51.00
"US1IALN0032","2016-12-06",,,0.00,0.00,13.00
"US1IALN0032","2016-12-07",,,0.00,0.00,13.00
"US1IALN0032","2016-12-08",,,0.00,0.00,13.00
"US1IALN0032","2016-12-09",,,0.00,0.00,13.00
"US1IALN0032","2016-12-10",,,0.00,0.00,13.00
"US1IALN0032","2016-12-11",,,33.00,48.00,64.00
"US1IALN0032","2016-12-12",,,18.00,25.00,76.00
"US1IALN0032","2016-12-13",,,0.00,0.00,64.00
"US1IALN0032","2016-12-14",,,0.00,0.00,64.00
"US1IALN0032","2016-12-15",,,0.00,0.00,64.00
"US1IALN0032","2016-12-16",,,0.00,0.00,51.00
"US1IALN0032","2016-12-17",,,10.00,5.00,64.00
"US1IALN0032","2016-12-18",,,61.00,61.00,114.00
"US1IALN0032","2016-12-19",,,0.00,0.00,102.00
"US1IALN0032","2016-12-20",,,0.00,0.00,102.00
"US1IALN0032","2016-12-21",,,0.00,0.00,89.00
"US1IALN0032","2016-12-22",,,0.00,0.00,76.00
"US1IALN0032","2016-12-23",,,0.00,0.00,64.00
"US1IALN0032","2016-12-24",,,48.00,5.00,64.00
"US1IALN0032","2016-12-25",,,0.00,0.00,51.00
"US1IALN0032","2016-12-26",,,180.00,0.00,0.00
"US1IALN0032","2016-12-27",,,0.00,0.00,0.00
"US1IALN0032","2016-12-28",,,0.00,0.00,0.00
"US1IALN0032","2016-12-29",,,0.00,0.00,0.00
"US1IALN0032","2016-12-30",,,0.00,0.00,0.00
"US1IALN0032","2016-12-31",,,0.00,0.00,0.00
"US1IALN0032","2017-01-01",,,0.00,0.00,0.00
"US1IALN0032","2017-01-02",,,0.00,0.00,0.00
"US1IALN0032","2017-01-03",,,48.00,0.00,0.00
"US1IALN0032","2017-01-04",,,0.00,0.00,0.00
"US1IALN0032","2017-01-05",,,0.00,0.00,0.00
"US1IALN0032","2017-01-06",,,0.00,0.00,0.00
"US1IALN0032","2017-01-07",,,0.00,0.00,0.00
"US1IALN0032","2017-01-08",,,0.00,0.00,0.00
"US1IALN0032","2017-01-09",,,0.00,0.00,0.00
"US1IALN0032","2017-01-10",,,3.00,0.00,0.00
"US1IALN0032","2017-01-11",,,61.00,0.00,0.00
"US1IALN0032","2017-01-12",,,0.00,0.00,0.00
"US1IALN0032","2017-01-13",,,0.00,0.00,0.00
"US1IALN0032","2017-01-14",,,0.00,0.00,0.00
"US1IALN0032","2017-01-15",,,0.00,0.00,0.00
"US1IALN0032","2017-01-16",,,30.00,0.00,0.00
"US1IALN0032","2017-01-17",,,157.00,0.00,0.00
"US1IALN0032","2017-01-18",,,3.00,0.00,0.00
"US1IALN0032","2017-01-19",,,0.00,0.00,0.00
"US1IALN0032","2017-01-20",,,94.00,0.00,0.00
"US1IALN0032","2017-01-21",,,18.00,0.00,0.00
"US1IALN0032","2017-01-22",,,0.00,0.00,0.00
"US1IALN0032","2017-01-23",,,0.00,0.00,0.00
"US1IALN0032","2017-01-24",,,0.00,0.00,0.00
"US1IALN0032","2017-01-25",,,20.00,0.00,0.00
"US1IALN0032","2017-01-26",,,36.00,15.00,13.00
"US1IALN0032","2017-01-27",,,0.00,0.00,13.00
"US1IALN0032","2017-01-28",,,0.00,0.00,13.00
"US1IALN0032","2017-01-29",,,0.00,0.00,13.00
"US1IALN0032","2017-01-30",,,0.00,0.00,13.00
"US1IALN0032","2017-01-31",,,0.00,0.00,0.00
"US1IALN0032","2017-02-01",,,0.00,0.00,0.00
"US1IALN0032","2017-02-02",,,0.00,0.00,0.00
"US1IALN0032","2017-02-03",,,0.00,0.00,0.00
"US1IALN0032","2017-02-04",,,0.00,0.00,0.00
"US1IALN0032","2017-02-05",,,0.00,0.00,0.00
"US1IALN0032","2017-02-06",,,0.00,0.00,0.00
"US1IALN0032","2017-02-07",,,69.00,0.00,0.00
"US1IALN0032","2017-02-08",,,18.00,30.00,30.00
"US1IALN0032","2017-02-09",,,0.00,0.00,13.00
"US1IALN0032","2017-02-10",,,0.00,0.00,0.00
"US1IALN0032","2017-02-11",,,0.00,0.00,0.00
"US1IALN0032","2017-02-12",,,0.00,0.00,0.00
"US1IALN0032","2017-02-13",,,0.00,0.00,0.00
"US1IALN0032","2017-02-14",,,0.00,0.00,0.00
"US1IALN0032","2017-02-15",,,0.00,0.00,0.00
"US1IALN0032","2017-02-16",,,0.00,0.00,0.00
"US1IALN0032","2017-02-17",,,0.00,0.00,0.00
"US1IALN0032","2017-02-18",,,0.00,0.00,0.00
"US1IALN0032","2017-02-19",,,0.00,0.00,0.00
"US1IALN0032","2017-02-20",,,0.00,0.00,0.00
"US1IALN0032","2017-02-21",,,64.00,0.00,0.00
"US1IALN0032","2017-02-22",,,0.00,0.00,0.00
"US1IALN0032","2017-02-23",,,0.00,0.00,0.00
"US1IALN0032","2017-02-24",,,86.00,0.00,0.00
"US1IALN0032","2017-02-25",,,18.00,13.00,13.00
"US1IALN0032","2017-02-26",,,0.00,0.00,0.00
"US1IALN0032","2017-02-28",,,8.00,0.00,0.00
"US1IALN0032","2017-03-01",,,28.00,0.00,0.00
"US1IALN0032","2017-03-02",,,0.00,0.00,0.00
"US1IALN0032","2017-03-03",,,0.00,0.00,0.00
"US1IALN0032","2017-03-04",,,0.00,0.00,0.00
"US1IALN0032","2017-03-05",,,0.00,0.00,0.00
"US1IALN0032","2017-03-06",,,0.00,0.00,0.00
"US1IALN0032","2017-03-07",,,109.00,0.00,0.00
"US1IALN0032","2017-03-08",,,0.00,0.00,0.00
"US1IALN0032","2017-03-09",,,0.00,0.00,0.00
"US1IALN0032","2017-03-10",,,0.00,0.00,0.00
"US1IALN0032","2017-03-11",,,0.00,0.00,0.00
"US1IALN0032","2017-03-12",,,0.00,0.00,0.00
"US1IALN0032","2017-03-13",,,94.00,107.00,102.00
"US1IALN0032","2017-03-14",,,0.00,0.00,64.00
"US1IALN0032","2017-03-15",,,0.00,0.00,51.00
"US1IALN0032","2017-03-16",,,0.00,0.00,25.00
"US1IALN0032","2017-03-17",,,0.00,0.00,0.00
"US1IALN0032","2017-03-18",,,0.00,0.00,0.00
"US1IALN0032","2017-03-19",,,0.00,0.00,0.00
"US1IALN0032","2017-03-20",,,0.00,0.00,0.00
"US1IALN0032","2017-03-21",,,0.00,0.00,0.00
"US1IALN0032","2017-03-22",,,0.00,0.00,0.00
"US1IALN0032","2017-03-23",,,0.00,0.00,0.00
"US1IALN0032","2017-03-24",,,0.00,0.00,0.00
"US1IALN0032","2017-03-25",,,84.00,0.00,0.00
"US1IALN0032","2017-03-26",,,76.00,0.00,0.00
"US1IALN0032","2017-03-27",,,0.00,0.00,0.00
"US1IALN0032","2017-03-28",,,0.00,0.00,0.00
"US1IALN0032","2017-03-29",,,0.00,0.00,0.00
"US1IALN0032","2017-03-30",,,201.00,0.00,0.00
"US1IALN0032","2017-03-31",,,18.00,0.00,0.00
"US1IALN0032","2017-04-01",,,0.00,0.00,0.00
"US1IALN0032","2017-04-02",,,5.00,0.00,0.00
"US1IALN0032","2017-04-03",,,28.00,0.00,0.00
"US1IALN0032","2017-04-04",,,79.00,0.00,0.00
"US1IALN0032","2017-04-05",,,28.00,0.00,0.00
"US1IALN0032","2017-04-06",,,142.00,0.00,0.00
"US1IALN0032","2017-04-07",,,0.00,0.00,0.00
"US1IALN0032","2017-04-08",,,0.00,0.00,0.00
"US1IALN0032","2017-04-09",,,0.00,0.00,0.00
"US1IALN0032","2017-04-10",,,10.00,0.00,0.00
"US1IALN0032","2017-04-11",,,0.00,0.00,0.00
"US1IALN0032","2017-04-12",,,0.00,0.00,0.00
"US1IALN0032","2017-04-13",,,109.00,0.00,0.00
"US1IALN0032","2017-04-14",,,0.00,0.00,0.00
"US1IALN0032","2017-04-15",,,127.00,0.00,0.00
"US1IALN0032","2017-04-16",,,432.00,0.00,0.00
"US1IALN0032","2017-04-17",,,0.00,0.00,0.00
"US1IALN0032","2017-04-18",,,0.00,0.00,0.00
"US1IALN0032","2017-04-19",,,0.00,0.00,0.00
"US1IALN0032","2017-04-20",,,0.00,0.00,0.00
"US1IALN0032","2017-04-21",,,0.00,0.00,0.00
"US1IALN0032","2017-04-22",,,0.00,0.00,0.00
"US1IALN0032","2017-04-23",,,0.00,0.00,0.00
"US1IALN0032","2017-04-24",,,0.00,0.00,0.00
"US1IALN0032","2017-04-25",,,0.00,0.00,0.00
"US1IALN0032","2017-04-26",,,46.00,0.00,0.00
"US1IALN0032","2017-04-27",,,145.00,0.00,0.00
"US1IALN0032","2017-04-28",,,0.00,0.00,0.00
"US1IALN0032","2017-04-29",,,94.00,0.00,0.00
"US1IALN0032","2017-04-30",,,61.00,0.00,0.00
"US1IALN0032","2017-05-01",,,234.00,0.00,0.00
"US1IALN0032","2017-05-02",,,25.00,0.00,0.00
"US1IALN0032","2017-05-03",,,0.00,0.00,0.00
"US1IALN0032","2017-05-04",,,0.00,0.00,0.00
"US1IALN0032","2017-05-05",,,0.00,0.00,0.00
"US1IALN0032","2017-05-06",,,0.00,0.00,0.00
"US1IALN0032","2017-05-07",,,0.00,0.00,0.00
"US1IALN0032","2017-05-08",,,0.00,0.00,0.00
"US1IALN0032","2017-05-09",,,124.00,0.00,0.00
"US1IALN0032","2017-05-10",,,0.00,0.00,0.00
"US1IALN0032","2017-05-11",,,218.00,0.00,0.00
"US1IALN0032","2017-05-12",,,0.00,0.00,0.00
"US1IALN0032","2017-05-13",,,0.00,0.00,0.00
"US1IALN0032","2017-05-14",,,0.00,0.00,0.00
"US1IALN0032","2017-05-15",,,0.00,0.00,0.00
"US1IALN0032","2017-05-16",,,0.00,0.00,0.00
"US1IALN0032","2017-05-17",,,13.00,0.00,0.00
"US1IALN0032","2017-05-18",,,183.00,0.00,0.00
"US1IALN0032","2017-05-19",,,147.00,0.00,0.00
"US1IALN0032","2017-05-20",,,64.00,0.00,0.00
"US1IALN0032","2017-05-21",,,81.00,0.00,0.00
"US1IALN0032","2017-05-22",,,0.00,0.00,0.00
"US1IALN0032","2017-05-23",,,5.00,0.00,0.00
"US1IALN0032","2017-05-24",,,3.00,0.00,0.00
"US1IALN0032","2017-05-25",,,3.00,0.00,0.00
"US1IALN0032","2017-05-26",,,0.00,0.00,0.00
"US1IALN0032","2017-05-27",,,191.00,0.00,0.00
"US1IALN0032","2017-05-28",,,69.00,0.00,0.00
"US1IALN0032","2017-05-29",,,0.00,0.00,0.00
"US1IALN0032","2017-05-30",,,0.00,0.00,0.00
"US1IALN0032","2017-05-31",,,0.00,0.00,0.00
"US1IALN0032","2017-06-01",,,0.00,0.00,0.00
"US1IALN0032","2017-06-02",,,0.00,0.00,0.00
"US1IALN0032","2017-06-03",,,0.00,0.00,0.00
"US1IALN0032","2017-06-04",,,43.00,0.00,0.00
"US1IALN0032","2017-06-05",,,0.00,0.00,0.00
"US1IALN0032","2017-06-06",,,0.00,0.00,0.00
"US1IALN0032","2017-06-07",,,0.00,0.00,0.00
"US1IALN0032","2017-06-08",,,0.00,0.00,0.00
"US1IALN0032","2017-06-09",,,0.00,0.00,0.00
"US1IALN0032","2017-06-10",,,0.00,0.00,0.00
"US1IALN0032","2017-06-11",,,0.00,0.00,0.00
"US1IALN0032","2017-06-12",,,0.00,0.00,0.00
"US1IALN0032","2017-06-13",,,0.00,0.00,0.00
"US1IALN0032","2017-06-14",,,3.00,0.00,0.00
"US1IALN0032","2017-06-15",,,180.00,0.00,0.00
"US1IALN0032","2017-06-16",,,69.00,0.00,0.00
"US1IALN0032","2017-06-17",,,229.00,0.00,0.00
"US1IALN0032","2017-06-18",,,0.00,0.00,0.00
"US1IALN0032","2017-06-19",,,0.00,0.00,0.00
"US1IALN0032","2017-06-20",,,0.00,0.00,0.00
"US1IALN0032","2017-06-21",,,0.00,0.00,0.00
"US1IALN0032","2017-06-22",,,58.00,0.00,0.00
"US1IALN0032","2017-06-23",,,119.00,0.00,0.00
"US1IALN0032","2017-06-24",,,0.00,0.00,0.00
"US1IALN0032","2017-06-25",,,0.00,0.00,0.00
"US1IALN0032","2017-06-26",,,3.00,0.00,0.00
"US1IALN0032","2017-06-27",,,0.00,0.00,0.00
"US1IALN0032","2017-06-28",,,155.00,0.00,0.00
"US1IALN0032","2017-06-29",,,33.00,0.00,0.00
"US1IALN0032","2017-06-30",,,18.00,0.00,0.00
"US1IALN0032","2017-07-01",,,0.00,0.00,0.00
"US1IALN0032","2017-07-02",,,0.00,0.00,0.00
"US1IALN0032","2017-07-03",,,0.00,0.00,0.00
"US1IALN0032","2017-07-04",,,0.00,0.00,0.00
"US1IALN0032","2017-07-05",,,0.00,0.00,0.00
"US1IALN0032","2017-07-06",,,69.00,0.00,0.00
"US1IALN0032","2017-07-07",,,0.00,0.00,0.00
"US1IALN0032","2017-07-08",,,0.00,0.00,0.00
"US1IALN0032","2017-07-09",,,0.00,0.00,0.00
"US1IALN0032","2017-07-10",,,302.00,0.00,0.00
"US1IALN0032","2017-07-11",,,0.00,0.00,0.00
"US1IALN0032","2017-07-12",,,0.00,0.00,0.00
"US1IALN0032","2017-07-13",,,43.00,0.00,0.00
"US1IALN0032","2017-07-14",,,0.00,0.00,0.00
"US1IALN0032","2017-07-15",,,0.00,0.00,0.00
"US1IALN0032","2017-07-16",,,0.00,0.00,0.00
"US1IALN0032","2017-07-17",,,0.00,0.00,0.00
"US1IALN0032","2017-07-18",,,0.00,0.00,0.00
"US1IALN0032","2017-07-19",,,208.00,0.00,0.00
"US1IALN0032","2017-07-20",,,0.00,0.00,0.00
"US1IALN0032","2017-07-21",,,188.00,0.00,0.00
"US1IALN0032","2017-07-22",,,107.00,0.00,0.00
"US1IALN0032","2017-07-23",,,0.00,0.00,0.00
"US1IALN0032","2017-07-24",,,0.00,0.00,0.00
"US1IALN0032","2017-07-25",,,0.00,0.00,0.00
"US1IALN0032","2017-07-26",,,0.00,0.00,0.00
"US1IALN0032","2017-07-27",,,155.00,0.00,0.00
"US1IALN0032","2017-07-28",,,0.00,0.00,0.00
"US1IALN0032","2017-07-29",,,0.00,0.00,0.00
"US1IALN0032","2017-07-30",,,0.00,0.00,0.00
"US1IALN0032","2017-07-31",,,0.00,0.00,0.00
"US1IALN0032","2017-08-01",,,0.00,0.00,0.00
"US1IALN0032","2017-08-02",,,0.00,0.00,0.00
"US1IALN0032","2017-08-03",,,0.00,0.00,0.00
"US1IALN0032","2017-08-04",,,58.00,0.00,0.00
"US1IALN0032","2017-08-05",,,0.00,0.00,0.00
"US1IALN0032","2017-08-06",,,0.00,0.00,0.00
"US1IALN0032","2017-08-07",,,0.00,0.00,0.00
"US1IALN0032","2017-08-08",,,0.00,0.00,0.00
"US1IALN0032","2017-08-09",,,0.00,0.00,0.00
"US1IALN0032","2017-08-10",,,0.00,0.00,0.00
"US1IALN0032","2017-08-11",,,0.00,0.00,0.00
"US1IALN0032","2017-08-12",,,0.00,0.00,0.00
"US1IALN0032","2017-08-13",,,0.00,0.00,0.00
"US1IALN0032","2017-08-14",,,0.00,0.00,0.00
"US1IALN0032","2017-08-15",,,74.00,0.00,0.00
"US1IALN0032","2017-08-16",,,0.00,0.00,0.00
"US1IALN0032","2017-08-17",,,0.00,0.00,0.00
"US1IALN0032","2017-08-18",,,0.00,0.00,0.00
"US1IALN0032","2017-08-19",,,13.00,0.00,0.00
"US1IALN0032","2017-08-20",,,0.00,0.00,0.00
"US1IALN0032","2017-08-21",,,48.00,0.00,0.00
"US1IALN0032","2017-08-22",,,127.00,0.00,0.00
"US1IALN0032","2017-08-23",,,0.00,0.00,0.00
"US1IALN0032","2017-08-24",,,0.00,0.00,0.00
"US1IALN0032","2017-08-25",,,3.00,0.00,0.00
"US1IALN0032","2017-08-26",,,0.00,0.00,0.00
"US1IALN0032","2017-08-27",,,0.00,0.00,0.00
"US1IALN0032","2017-08-28",,,8.00,0.00,0.00
"US1IALN0032","2017-08-29",,,0.00,0.00,0.00
"US1IALN0032","2017-08-30",,,0.00,0.00,0.00
"US1IALN0032","2017-08-31",,,0.00,0.00,0.00
"US1IALN0032","2017-09-01",,,0.00,0.00,0.00
"US1IALN0032","2017-09-02",,,0.00,0.00,0.00
"US1IALN0032","2017-09-03",,,0.00,0.00,0.00
"US1IALN0032","2017-09-04",,,0.00,0.00,0.00
"US1IALN0032","2017-09-05",,,0.00,0.00,0.00
"US1IALN0032","2017-09-06",,,0.00,0.00,0.00
"US1IALN0032","2017-09-07",,,0.00,0.00,0.00
"US1IALN0032","2017-09-08",,,0.00,0.00,0.00
"US1IALN0032","2017-09-09",,,0.00,0.00,0.00
"US1IALN0032","2017-09-10",,,0.00,0.00,0.00
"US1IALN0032","2017-09-11",,,0.00,0.00,0.00
"US1IALN0032","2017-09-12",,,0.00,0.00,0.00
"US1IALN0032","2017-09-13",,,0.00,0.00,0.00
"US1IALN0032","2017-09-14",,,0.00,0.00,0.00
"US1IALN0032","2017-09-15",,,3.00,0.00,0.00
"US1IALN0032","2017-09-16",,,0.00,0.00,0.00
"US1IALN0032","2017-09-17",,,76.00,0.00,0.00
"US1IALN0032","2017-09-18",,,0.00,0.00,0.00
"US1IALN0032","2017-09-19",,,13.00,0.00,0.00
"US1IALN0032","2017-09-20",,,0.00,0.00,0.00
"US1IALN0032","2017-09-21",,,0.00,0.00,0.00
"US1IALN0032","2017-09-22",,,0.00,0.00,0.00
"US1IALN0032","2017-09-23",,,0.00,0.00,0.00
"US1IALN0032","2017-09-24",,,0.00,0.00,0.00
"US1IALN0032","2017-09-25",,,0.00,0.00,0.00
"US1IALN0032","2017-09-26",,,142.00,0.00,0.00
"US1IALN0032","2017-09-27",,,0.00,0.00,0.00
"US1IALN0032","2017-09-28",,,0.00,0.00,0.00
"US1IALN0032","2017-09-29",,,0.00,0.00,0.00
"US1IALN0032","2017-09-30",,,0.00,0.00,0.00
"US1IALN0032","2017-10-01",,,0.00,0.00,0.00
"US1IALN0032","2017-10-02",,,0.00,0.00,0.00
"US1IALN0032","2017-10-03",,,0.00,0.00,0.00
"US1IALN0032","2017-10-04",,,193.00,0.00,0.00
"US1IALN0032","2017-10-05",,,0.00,0.00,0.00
"US1IALN0032","2017-10-06",,,0.00,0.00,0.00
"US1IALN0032","2017-10-07",,,168.00,0.00,0.00
"US1IALN0032","2017-10-08",,,10.00,0.00,0.00
"US1IALN0032","2017-10-09",,,0.00,0.00,0.00
"US1IALN0032","2017-10-10",,,0.00,0.00,0.00
"US1IALN0032","2017-10-11",,,292.00,0.00,0.00
"US1IALN0032","2017-10-12",,,0.00,0.00,0.00
"US1IALN0032","2017-10-13",,,0.00,0.00,0.00
"US1IALN0032","2017-10-14",,,18.00,0.00,0.00
"US1IALN0032","2017-10-15",,,160.00,0.00,0.00
"US1IALN0032","2017-10-16",,,0.00,0.00,0.00
"US1IALN0032","2017-10-17",,,0.00,0.00,0.00
"US1IALN0032","2017-10-18",,,0.00,0.00,0.00
"US1IALN0032","2017-10-19",,,0.00,0.00,0.00
"US1IALN0032","2017-10-20",,,0.00,0.00,0.00
"US1IALN0032","2017-10-21",,,0.00,0.00,0.00
"US1IALN0032","2017-10-22",,,107.00,0.00,0.00
"US1IALN0032","2017-10-23",,,0.00,0.00,0.00
"US1IALN0032","2017-10-24",,,3.00,0.00,0.00
"US1IALN0032","2017-10-25",,,0.00,0.00,0.00
"US1IALN0032","2017-10-26",,,0.00,0.00,0.00
"US1IALN0032","2017-10-27",,,0.00,0.00,0.00
"US1IALN0032","2017-10-28",,,0.00,0.00,0.00
"US1IALN0032","2017-10-29",,,0.00,0.00,0.00
"US1IALN0032","2017-10-30",,,13.00,0.00,0.00
"US1IALN0032","2017-10-31",,,0.00,0.00,0.00
"US1IALN0032","2017-11-01",,,0.00,0.00,0.00
"US1IALN0032","2017-11-02",,,0.00,0.00,0.00
"US1IALN0032","2017-11-03",,,0.00,0.00,0.00
"US1IALN0032","2017-11-04",,,20.00,0.00,0.00
"US1IALN0032","2017-11-05",,,3.00,0.00,0.00
"US1IALN0032","2017-11-06",,,0.00,0.00,0.00
"US1IALN0032","2017-11-07",,,0.00,0.00,0.00
"US1IALN0032","2017-11-08",,,0.00,0.00,0.00
"US1IALN0032","2017-11-09",,,0.00,0.00,0.00
"US1IALN0032","2017-11-10",,,0.00,0.00,0.00
"US1IALN0032","2017-11-11",,,0.00,0.00,0.00
"US1IALN0032","2017-11-12",,,81.00,0.00,0.00
"US1IALN0032","2017-11-13",,,25.00,0.00,0.00
"US1IALN0032","2017-11-14",,,0.00,0.00,0.00
"US1IALN0032","2017-11-15",,,3.00,0.00,0.00
"US1IALN0032","2017-11-16",,,0.00,0.00,0.00
"US1IALN0032","2017-11-17",,,0.00,0.00,0.00
"US1IALN0032","2017-11-18",,,48.00,0.00,0.00
"US1IALN0032","2017-11-19",,,0.00,0.00,0.00
"US1IALN0032","2017-11-20",,,0.00,0.00,0.00
"US1IALN0032","2017-11-21",,,0.00,0.00,0.00
"US1IALN0032","2017-11-22",,,0.00,0.00,0.00
"US1IALN0032","2017-11-23",,,0.00,0.00,0.00
"US1IALN0032","2017-11-24",,,0.00,0.00,0.00
"US1IALN0032","2017-11-25",,,0.00,0.00,0.00
"US1IALN0032","2017-11-26",,,0.00,0.00,0.00
"US1IALN0032","2017-11-27",,,0.00,0.00,0.00
"US1IALN0032","2017-11-28",,,0.00,0.00,0.00
"US1IALN0032","2017-11-29",,,0.00,0.00,0.00
"US1IALN0032","2017-11-30",,,0.00,0.00,0.00
"US1IALN0032","2017-12-01",,,0.00,0.00,0.00
"US1IALN0032","2017-12-02",,,0.00,0.00,0.00
"US1IALN0032","2017-12-03",,,0.00,0.00,0.00
"US1IALN0032","2017-12-04",,,0.00,0.00,0.00
"US1IALN0032","2017-12-05",,,33.00,0.00,0.00
"US1IALN0032","2017-12-06",,,0.00,0.00,0.00
"US1IALN0032","2017-12-07",,,0.00,0.00,0.00
"US1IALN0032","2017-12-08",,,0.00,0.00,0.00
"US1IALN0032","2017-12-09",,,0.00,0.00,0.00
"US1IALN0032","2017-12-10",,,0.00,0.00,0.00
"US1IALN0032","2017-12-11",,,0.00,0.00,0.00
"US1IALN0032","2017-12-12",,,13.00,0.00,0.00
"US1IALN0032","2017-12-13",,,0.00,0.00,0.00
"US1IALN0032","2017-12-14",,,0.00,0.00,0.00
"US1IALN0032","2017-12-15",,,0.00,0.00,0.00
"US1IALN0032","2017-12-16",,,0.00,0.00,0.00
"US1IALN0032","2017-12-17",,,0.00,0.00,0.00
"US1IALN0032","2017-12-18",,,3.00,0.00,0.00
"US1IALN0032","2017-12-19",,,0.00,0.00,0.00
"US1IALN0032","2017-12-20",,,0.00,0.00,0.00
"US1IALN0032","2017-12-21",,,0.00,0.00,0.00
"US1IALN0032","2017-12-22",,,0.00,0.00,0.00
"US1IALN0032","2017-12-23",,,0.00,0.00,0.00
"US1IALN0032","2017-12-24",,,13.00,13.00,13.00
"US1IALN0032","2017-12-25",,,13.00,15.00,25.00
"US1IALN0032","2017-12-26",,,0.00,0.00,25.00
"US1IALN0032","2017-12-27",,,0.00,0.00,25.00
"US1IALN0032","2017-12-28",,,0.00,3.00,25.00
"US1IALN0032","2017-12-29",,,10.00,25.00,51.00
"US1IALN0032","2017-12-30",,,56.00,114.00,152.00
"US1IALN0032","2017-12-31",,,3.00,8.00,152.00
"US1IALN0032","2018-01-03",,,,10.00,
"US1IALN0032","2018-01-15",,,,33.00,
"US1IALN0032","2018-01-16",,,,10.00,
"US1IALN0032","2018-02-06",,,,102.00,102.00
"US1IALN0032","2018-02-07",,,,13.00,
"US1IALN0032","2018-02-09",,,,94.00,
"US1IALN0032","2018-02-10",,,,69.00,
"US1IALN0032","2018-02-11",,,,36.00,
"US1IALN0032","2018-02-18",,,,46.00,
"US1IALN0032","2018-03-06",,,,25.00,
"US1IALN0032","2018-03-24",,,,107.00,
"US1IALN0032","2018-03-25",,,,84.00,
"US1IALN0032","2018-04-04",,,,0.00,
"US1IALN0032","2018-04-09",,,,69.00,
"US1IALN0032","2018-04-19",,,,3.00,
"US1IALN0032","2018-11-26",,,0.00,0.00,0.00
